• In Czech Republic
  • List of Countries
  • For 7 days
  • Water Temperature
  • Satellite Maps
  • Weather Map
  • Weather Widgets
  • user-avatar
    Login

    Hourly Weather Babruysk

    Today, 26 September, Wednesday

    Time Temperature Precipitation Wind Pressure Humidity
    00:00 +3°C° 0 mm 3 mps 756 mmHg 75%
    01:00 +3°C° 0 mm 3 mps 757 mmHg 75%
    02:00 +2°C° 0 mm 3 mps 757 mmHg 79%
    03:00 +1°C° 0 mm 3 mps 758 mmHg 81%
    04:00 +1°C° 0 mm 3 mps 758 mmHg 84%
    05:00 +1°C° 0 mm 3 mps 758 mmHg 86%
    06:00 +2°C° 0 mm 3 mps 759 mmHg 83%
    07:00 +3°C° 0 mm 3 mps 759 mmHg 79%
    08:00 +4°C° 0 mm 3 mps 760 mmHg 76%
    09:00 +6°C° 0 mm 4 mps 760 mmHg 67%
    10:00 +8°C° 0 mm 4 mps 759 mmHg 58%
    11:00 +11°C° 0 mm 4 mps 759 mmHg 50%
    12:00 +10°C° 0 mm 5 mps 759 mmHg 48%
    13:00 +12°C° 0 mm 5 mps 758 mmHg 45%
    14:00 +13°C° 0 mm 6 mps 758 mmHg 43%
    15:00 +12°C° 0 mm 5 mps 757 mmHg 46%
    16:00 +10°C° 0 mm 5 mps 757 mmHg 49%
    17:00 +10°C° 0 mm 4 mps 756 mmHg 52%
    18:00 +9°C° 0 mm 5 mps 756 mmHg 53%
    19:00 +8°C° 0 mm 5 mps 755 mmHg 55%
    20:00 +8°C° 0 mm 6 mps 755 mmHg 56%
    21:00 +8°C° 0.2 mm 6 mps 754 mmHg 62%
    22:00 +6°C° 0.2 mm 7 mps 753 mmHg 67%
    23:00 +6°C° 0.2 mm 8 mps 753 mmHg 72%

    Tomorrow, 27 September, Thursday

    Time Temperature Precipitation Wind Pressure Humidity
    00:00 +6°C° 0.1 mm 8 mps 752 mmHg 75%
    01:00 +6°C° 0.1 mm 8 mps 751 mmHg 77%
    02:00 +6°C° 0.1 mm 9 mps 750 mmHg 80%
    03:00 +6°C° 0.4 mm 9 mps 749 mmHg 82%
    04:00 +6°C° 0.4 mm 8 mps 749 mmHg 84%
    05:00 +6°C° 0.4 mm 8 mps 748 mmHg 87%
    06:00 +6°C° 0.1 mm 8 mps 748 mmHg 87%
    07:00 +7°C° 0.1 mm 8 mps 748 mmHg 87%
    08:00 +8°C° 0.1 mm 7 mps 748 mmHg 87%
    09:00 +9°C° 0 mm 7 mps 748 mmHg 85%
    10:00 +10°C° 0 mm 7 mps 748 mmHg 84%
    11:00 +11°C° 0 mm 7 mps 749 mmHg 82%
    12:00 +12°C° 0.1 mm 7 mps 749 mmHg 77%
    13:00 +14°C° 0.1 mm 7 mps 749 mmHg 72%
    14:00 +15°C° 0.1 mm 7 mps 749 mmHg 67%
    15:00 +15°C° 0 mm 6 mps 749 mmHg 68%
    16:00 +14°C° 0 mm 5 mps 749 mmHg 68%
    17:00 +14°C° 0 mm 4 mps 749 mmHg 68%
    18:00 +13°C° 0 mm 4 mps 749 mmHg 73%
    19:00 +11°C° 0 mm 4 mps 750 mmHg 78%
    20:00 +10°C° 0 mm 3 mps 750 mmHg 83%
    21:00 +10°C° 0 mm 3 mps 750 mmHg 84%
    22:00 +10°C° 0 mm 3 mps 750 mmHg 86%
    23:00 +10°C° 0 mm 4 mps 750 mmHg 87%

    Day after tomorrow, 28 September, Friday

    Time Temperature Precipitation Wind Pressure Humidity
    00:00 +10°C° 0 mm 4 mps 749 mmHg 89%
    01:00 +10°C° 0 mm 4 mps 749 mmHg 90%
    02:00 +9°C° 0 mm 5 mps 748 mmHg 92%
    03:00 +9°C° 0 mm 5 mps 747 mmHg 92%
    04:00 +10°C° 0 mm 6 mps 747 mmHg 93%
    05:00 +10°C° 0 mm 6 mps 746 mmHg 94%
    06:00 +11°C° 0 mm 6 mps 746 mmHg 91%
    07:00 +11°C° 0 mm 7 mps 745 mmHg 89%
    08:00 +12°C° 0 mm 7 mps 744 mmHg 87%
    09:00 +14°C° 0.1 mm 7 mps 744 mmHg 84%
    10:00 +14°C° 0.1 mm 7 mps 744 mmHg 82%
    11:00 +15°C° 0.1 mm 8 mps 744 mmHg 80%
    12:00 +15°C° 0.2 mm 7 mps 744 mmHg 79%
    13:00 +14°C° 0.2 mm 6 mps 744 mmHg 78%
    14:00 +13°C° 0.2 mm 6 mps 745 mmHg 78%
    15:00 +13°C° 0.1 mm 5 mps 745 mmHg 77%
    16:00 +12°C° 0.1 mm 4 mps 746 mmHg 76%
    17:00 +12°C° 0.1 mm 3 mps 746 mmHg 75%
    18:00 +10°C° 0 mm 3 mps 746 mmHg 79%
    19:00 +9°C° 0 mm 2 mps 747 mmHg 83%
    20:00 +8°C° 0 mm 2 mps 747 mmHg 87%
    21:00 +9°C° 0 mm 1 mps 748 mmHg 87%
    22:00 +8°C° 0 mm 1 mps 748 mmHg 88%
    23:00 +8°C° 0 mm 1 mps 748 mmHg 88%

    29 September, Saturday

    Time Temperature Precipitation Wind Pressure Humidity
    00:00 +8°C° 0 mm 1 mps 749 mmHg 87%
    01:00 +7°C° 0 mm 0 mps 749 mmHg 86%
    02:00 +6°C° 0 mm 0 mps 749 mmHg 86%
    03:00 +6°C° 0 mm 0 mps 750 mmHg 85%
    04:00 +6°C° 0 mm 0 mps 750 mmHg 85%
    05:00 +7°C° 0 mm 1 mps 750 mmHg 85%
    06:00 +8°C° 0.2 mm 1 mps 750 mmHg 85%
    07:00 +8°C° 0.2 mm 1 mps 750 mmHg 84%
    08:00 +8°C° 0.2 mm 2 mps 751 mmHg 84%
    09:00 +8°C° 0.1 mm 2 mps 751 mmHg 81%
    10:00 +9°C° 0.1 mm 2 mps 752 mmHg 78%
    11:00 +9°C° 0.1 mm 3 mps 752 mmHg 75%
    12:00 +10°C° 0 mm 3 mps 752 mmHg 69%
    13:00 +10°C° 0 mm 3 mps 752 mmHg 64%
    14:00 +11°C° 0 mm 3 mps 753 mmHg 58%
    15:00 +12°C° 0 mm 2 mps 753 mmHg 60%
    16:00 +10°C° 0 mm 2 mps 753 mmHg 62%
    17:00 +10°C° 0 mm 2 mps 753 mmHg 63%
    18:00 +8°C° 0 mm 2 mps 754 mmHg 67%
    19:00 +7°C° 0 mm 2 mps 755 mmHg 71%
    20:00 +6°C° 0 mm 2 mps 755 mmHg 74%
    21:00 +5°C° 0 mm 2 mps 756 mmHg 77%
    22:00 +5°C° 0 mm 2 mps 756 mmHg 79%
    23:00 +6°C° 0 mm 1 mps 756 mmHg 82%

    30 September, Sunday

    Time Temperature Precipitation Wind Pressure Humidity
    00:00 +5°C° 0 mm 1 mps 756 mmHg 84%
    01:00 +5°C° 0 mm 1 mps 757 mmHg 86%
    02:00 +4°C° 0 mm 1 mps 757 mmHg 89%
    03:00 +4°C° 0 mm 1 mps 757 mmHg 90%
    04:00 +4°C° 0 mm 1 mps 757 mmHg 91%
    05:00 +4°C° 0 mm 1 mps 757 mmHg 91%
    06:00 +5°C° 0 mm 1 mps 757 mmHg 87%
    07:00 +6°C° 0 mm 1 mps 757 mmHg 82%
    08:00 +7°C° 0 mm 1 mps 758 mmHg 78%
    09:00 +8°C° 0 mm 1 mps 758 mmHg 70%
    10:00 +9°C° 0 mm 2 mps 758 mmHg 62%
    11:00 +12°C° 0 mm 2 mps 758 mmHg 54%
    12:00 +12°C° 0 mm 2 mps 757 mmHg 50%
    13:00 +13°C° 0 mm 2 mps 757 mmHg 47%
    14:00 +13°C° 0 mm 3 mps 757 mmHg 43%
    15:00 +13°C° 0 mm 2 mps 756 mmHg 48%
    16:00 +12°C° 0 mm 2 mps 756 mmHg 52%
    17:00 +11°C° 0 mm 1 mps 756 mmHg 56%
    18:00 +10°C° 0 mm 1 mps 756 mmHg 59%
    19:00 +9°C° 0 mm 1 mps 756 mmHg 63%
    20:00 +7°C° 0 mm 1 mps 756 mmHg 66%
    21:00 +7°C° 0 mm 1 mps 756 mmHg 67%
    22:00 +7°C° 0 mm 1 mps 756 mmHg 68%
    23:00 +5°C° 0 mm 2 mps 755 mmHg 69%

    1 October, Monday

    Time Temperature Precipitation Wind Pressure Humidity
    00:00 +5°C° 0 mm 2 mps 755 mmHg 70%
    01:00 +5°C° 0 mm 2 mps 755 mmHg 71%
    02:00 +4°C° 0 mm 2 mps 755 mmHg 72%
    03:00 +4°C° 0 mm 2 mps 755 mmHg 73%
    04:00 +4°C° 0 mm 2 mps 754 mmHg 74%
    05:00 +4°C° 0 mm 2 mps 754 mmHg 75%
    06:00 +4°C° 0 mm 2 mps 754 mmHg 72%
    07:00 +5°C° 0 mm 2 mps 754 mmHg 69%
    08:00 +6°C° 0 mm 2 mps 754 mmHg 66%
    09:00 +8°C° 0 mm 3 mps 753 mmHg 60%
    10:00 +10°C° 0 mm 3 mps 753 mmHg 54%
    11:00 +12°C° 0 mm 4 mps 753 mmHg 48%
    12:00 +13°C° 0 mm 4 mps 752 mmHg 46%
    13:00 +13°C° 0 mm 4 mps 752 mmHg 45%
    14:00 +14°C° 0 mm 4 mps 751 mmHg 43%
    15:00 +13°C° 0 mm 3 mps 751 mmHg 48%
    16:00 +12°C° 0 mm 3 mps 750 mmHg 53%
    17:00 +12°C° 0 mm 2 mps 750 mmHg 57%
    18:00 +10°C° 0 mm 2 mps 750 mmHg 61%
    19:00 +9°C° 0 mm 2 mps 750 mmHg 65%
    20:00 +7°C° 0 mm 3 mps 750 mmHg 69%
    21:00 +7°C° 0 mm 3 mps 750 mmHg 70%
    22:00 +7°C° 0 mm 3 mps 750 mmHg 72%
    23:00 +5°C° 0 mm 3 mps 750 mmHg 73%
    Show more